sat.trackr.live / text

‹ back to catalog

STARLINK-5376

NORAD 56142 · 2023-046BC

PAYLOAD ACTIVE UNKNOWN

§ Identity

Operator
Country
US
Launch date
2023-03-29
Launch site
AFETR
Launch vehicle
Mass (kg)
RCS (m²)

Purposes: comms

External: N2YO · Heavens-Above · Gunter

§ Orbital elements

Epoch: 2026-09-20T08:15:27.108864Z

Period
94.27 min
Inclination
43.0041°
Eccentricity
0.0001277
Mean motion
15.27578433 rev/d
Perigee alt
482.2 km
Apogee alt
483.9 km
Semi-major
6,861.2 km
B*
1.4858e-6
RAAN
127.3703°
Arg perigee
271.4942°
Mean anomaly
88.5763°
Rev number
19,197

§ Raw data

STARLINK-53761 56142U 23046BC  26263.34406376 -.00000221  00000+0  14858-5 0  99912 56142  43.0041 127.3703 0001277 271.4942  88.5763 15.27578433191970

JSON: /api/v1/satellites/56142 · /tle

For live sub-satellite position, see the globe view (requires WebGL).

§ Visibility from observer

Set your observer location to see the next 7 days of passes ≥ 10°. The values pass through the URL so the page stays shareable.

No JS? Fill the form by hand. The geolocation button needs JavaScript.